Wind_Speed
40 38 36 32 29 24 20 19 14 11 8 7 8 10 11 13 14 11 9 7 5 5 4 3 2 2 3 5 7 8 10 11 13 16 18 24 21 17 17 19 22 22 22 22 23 24 24 24 25
44 43 41 37 34 28 25 22 17 12 11 10 9 11 13 14 15 14 9 8 8 6 6 5 4 3 5 6 8 9 10 12 14 17 21 24 19 19 21 24 26 25 24 24 24 25 26 27 28
48 47 45 45 40 30 29 28 18 16 14 13 12 13 15 17 16 15 10 10 10 8 7 6 5 5 6 8 9 10 12 14 16 17 20 24 23 23 25 26 28 25 24 25 26 26 27 28 29
54 51 51 51 41 32 32 32 22 19 18 17 15 14 16 17 18 16 11 12 11 10 9 8 7 6 7 8 9 11 13 15 17 18 19 24 25 24 26 29 28 29 29 30 29 29 30 30 31
60 57 56 54 44 34 34 38 27 22 21 19 17 17 17 20 19 19 13 13 11 11 11 9 8 8 9 9 10 11 14 16 18 19 21 24 26 26 29 30 30 31 31 32 34 34 32 32 34
67 66 64 59 46 36 40 41 30 27 26 22 20 20 21 20 21 18 13 14 13 13 13 11 10 10 10 11 11 13 14 17 19 19 21 23 26 27 30 31 30 32 32 33 37 36 32 30 33
69 71 68 61 50 42 41 42 33 30 28 27 23 21 21 20 21 20 14 15 15 14 14 13 12 12 12 13 13 14 16 18 20 20 21 23 26 28 30 32 31 32 33 34 38 36 34 32 28
66 69 71 66 57 47 43 44 36 37 28 28 22 20 21 22 24 22 16 16 16 16 16 15 15 14 14 14 14 16 17 18 20 21 22 22 26 28 30 32 33 33 34 34 37 37 35 31 25
68 69 69 68 62 49 46 47 43 39 34 30 23 20 28 23 23 21 16 17 18 18 18 18 17 17 15 16 16 16 18 20 21 22 22 23 26 29 31 32 33 33 33 34 35 35 31 27 21
72 70 67 61 57 48 48 49 47 42 36 33 27 23 26 25 23 22 18 18 19 20 20 20 19 18 17 18 17 18 20 21 22 24 24 25 26 28 30 32 33 33 34 34 32 32 28 23 19
74 70 65 58 51 49 53 52 50 45 42 37 34 29 29 27 26 23 19 19 21 22 23 22 21 20 20 19 19 20 21 23 23 25 27 28 28 28 30 32 34 34 34 35 34 31 27 22 18
78 71 65 61 55 54 53 54 51 46 43 39 34 31 28 26 25 22 19 20 23 24 25 24 23 22 22 22 21 21 23 24 26 26 29 30 30 30 30 32 34 34 35 34 34 32 30 25 20
79 72 66 64 56 54 56 58 51 48 42 38 34 34 33 29 25 22 20 21 23 26 26 26 25 24 25 25 23 24 25 27 28 29 31 33 33 32 32 33 35 36 37 35 35 33 31 30 25
76 73 65 65 60 56 57 58 49 47 41 38 36 38 35 31 27 24 20 22 24 26 27 27 26 26 27 27 27 27 28 29 31 33 34 35 35 35 34 35 37 37 39 36 34 35 33 32 30
69 69 64 66 63 60 60 55 46 46 41 38 37 36 34 31 28 26 22 23 25 27 28 28 28 29 30 29 29 31 32 32 34 36 37 37 37 37 37 38 39 40 41 40 36 36 35 35 34
62 68 71 66 64 62 59 51 46 42 41 40 37 35 33 31 29 27 26 25 24 27 28 29 30 31 31 32 32 33 35 36 38 39 40 40 40 40 40 41 42 44 45 44 39 37 39 37 37
53 66 77 66 66 62 58 50 46 45 43 41 37 34 32 30 27 27 28 26 25 26 28 31 31 33 34 34 35 36 37 39 40 41 41 42 42 43 43 44 45 47 50 45 40 39 41 40 38
49 59 70 66 67 66 57 52 48 45 43 41 37 35 32 30 29 27 27 28 26 27 29 31 33 34 35 36 37 39 39 40 42 43 43 44 44 45 46 47 49 51 49 43 40 40 40 41 40
41 50 63 60 63 57 55 51 47 44 42 38 36 35 32 31 29 27 27 29 28 29 29 31 34 35 37 37 39 40 40 41 43 44 45 45 46 47 48 49 49 51 48 43 42 44 44 44 43
40 46 53 57 55 55 53 51 47 44 39 38 38 35 32 31 28 28 28 28 29 29 30 32 34 36 37 38 39 41 41 43 45 46 47 48 49 49 50 49 52 52 48 46 45 45 43 43 42
39 43 48 51 51 50 50 51 50 42 38 37 35 34 32 29 28 28 29 28 30 31 31 33 34 36 38 40 41 43 44 45 46 47 48 49 50 51 51 53 53 50 47 46 46 45 43 43 42
39 38 42 48 48 48 49 50 46 36 34 35 35 33 32 30 28 27 29 30 31 31 34 34 36 38 39 41 43 45 46 47 48 49 51 50 49 51 53 53 50 48 47 48 46 44 44 42 40
29 37 37 43 45 44 44 45 40 35 38 34 31 31 32 29 25 27 29 32 33 34 35 36 38 40 42 43 44 46 47 49 51 52 51 51 53 54 53 50 49 49 49 47 45 45 44 41 39
37 34 38 36 41 42 43 43 40 35 34 32 30 29 28 26 27 29 29 32 34 36 36 38 40 42 43 45 46 48 50 52 52 52 53 55 55 54 53 52 51 51 50 48 48 47 44 41 40
41 34 36 37 42 41 40 38 36 32 30 27 26 25 25 27 29 30 30 30 31 34 37 40 42 44 45 47 50 52 53 54 55 57 58 58 56 54 53 53 54 53 52 51 50 47 43 41 42
33 39 36 41 43 40 36 32 28 23 21 23 22 22 23 25 26 26 27 30 34 37 39 42 44 47 49 51 53 55 57 59 60 60 58 57 56 56 57 57 56 55 53 52 50 47 45 43 43
35 33 33 32 33 31 29 25 21 17 16 16 17 19 19 20 24 27 30 34 36 39 42 45 48 50 52 55 58 60 60 58 57 57 57 59 60 60 60 58 57 56 54 51 48 46 46 46 47
36 32 31 31 30 29 24 21 19 17 16 16 16 17 20 23 26 30 33 36 39 42 45 47 50 54 56 57 56 56 57 58 60 61 62 62 61 60 59 58 57 54 53 51 50 49 48 49 50
36 31 30 29 26 24 23 20 17 17 15 15 17 18 21 25 29 33 37 40 43 46 50 53 55 55 55 56 58 60 62 63 64 64 65 64 63 61 59 58 57 56 55 55 54 54 53 54 54
35 32 31 28 27 22 17 15 12 10 11 14 18 22 25 29 34 36 39 43 46 47 47 48 52 55 58 59 61 61 62 62 62 61 60 60 60 60 60 60 60 60 60 60 58 57 57 58 58
Wind_Direction
229 230 230 231 230 228 232 227 227 242 260 284 320 334 339 339 345 327 300 277 253 237 235 239 258 310 329 331 339 345 351 348 348 350 352 353 353 358 1 355 349 343 336 329 321 315 310 305 302
231 232 232 231 233 229 234 239 235 241 251 271 298 311 322 331 331 327 297 268 254 245 239 242 252 283 305 314 324 339 343 345 343 349 353 358 360 351 351 348 345 339 333 324 317 310 304 299 293
233 233 233 233 230 228 238 237 238 245 253 265 279 293 310 323 325 322 299 259 254 247 243 242 250 274 296 305 318 334 336 337 342 348 353 354 352 348 345 342 340 339 333 327 321 315 308 300 293
235 233 234 235 230 227 238 243 232 244 253 259 270 288 303 315 321 317 295 257 251 244 239 238 246 268 287 301 314 327 332 335 338 342 345 348 348 345 343 344 341 339 335 334 332 326 317 306 295
237 236 236 236 231 226 234 243 236 238 247 253 268 281 293 309 313 314 293 255 247 243 241 241 250 268 285 298 311 324 329 332 336 338 341 346 346 346 345 344 342 340 339 337 335 329 319 309 298
234 237 236 236 232 226 235 242 239 240 246 255 262 276 290 302 309 312 286 257 249 243 244 245 255 269 283 296 308 316 324 329 334 336 340 343 345 346 348 345 342 340 340 339 337 334 330 318 301
233 235 239 240 233 228 235 244 241 239 245 253 261 275 287 294 305 312 285 254 247 243 245 248 255 267 279 293 305 315 318 328 330 333 335 339 342 343 344 343 342 340 338 340 341 338 336 334 321
232 233 235 238 235 230 231 241 240 242 241 251 259 270 275 290 303 306 286 256 244 244 245 249 255 264 276 287 301 310 316 324 326 330 331 334 339 339 340 340 342 339 339 338 342 342 341 338 337
230 231 232 235 236 228 229 238 241 244 247 252 253 258 274 289 300 303 284 260 246 244 245 252 259 267 272 285 296 306 312 319 322 326 326 328 332 336 338 338 340 340 336 335 337 340 339 338 346
228 230 232 233 235 227 229 236 240 242 246 250 251 257 270 284 294 299 283 263 248 246 247 253 260 266 275 285 294 303 309 313 320 322 322 322 324 332 333 334 333 336 333 333 331 334 337 339 341
226 227 231 231 229 227 227 232 236 238 242 249 253 258 265 280 285 290 280 267 251 248 250 253 261 268 276 283 291 299 305 309 314 316 318 317 316 321 328 329 328 331 329 328 329 326 328 328 326
225 223 227 228 226 225 225 227 234 238 244 249 250 256 264 271 278 283 274 268 255 250 252 256 261 268 275 281 288 296 300 303 309 311 313 313 314 310 320 323 325 324 325 322 323 321 318 317 316
224 223 224 225 224 225 228 230 230 236 239 244 248 252 259 268 271 277 271 269 258 254 253 256 262 269 275 281 287 292 296 300 304 308 310 310 309 307 308 315 318 319 319 319 315 315 309 308 306
223 223 222 224 222 223 228 232 232 237 239 240 242 252 258 260 264 273 267 268 261 256 256 258 263 270 276 282 286 290 294 299 303 306 307 307 306 307 305 307 312 314 315 313 309 308 304 299 297
220 220 220 221 222 223 227 231 230 235 234 237 239 248 253 255 261 267 264 261 262 259 259 261 265 270 275 281 286 291 296 299 302 304 305 304 304 305 304 302 305 307 311 309 304 301 300 292 291
215 216 216 217 220 222 226 228 228 230 232 235 237 243 247 252 258 265 263 259 262 261 264 266 268 271 276 281 285 290 294 298 301 302 303 303 303 303 302 300 302 304 307 307 303 296 295 292 280
213 213 217 214 218 221 224 223 223 225 229 233 235 240 245 250 256 261 262 261 267 265 265 268 271 274 278 283 287 291 294 297 298 300 300 301 301 300 301 301 301 303 305 309 303 294 291 290 283
214 213 216 215 216 219 220 221 222 224 228 232 233 238 244 248 254 260 263 263 266 271 269 271 274 276 281 285 288 291 293 296 297 298 298 298 299 300 300 301 302 303 311 308 297 292 290 291 290
210 213 215 210 216 217 221 222 221 226 228 233 236 240 243 247 253 263 261 264 270 272 271 274 277 280 284 287 289 290 293 295 296 296 296 297 298 298 299 301 304 310 310 301 293 292 293 291 289
203 206 209 205 209 211 215 219 222 224 227 229 232 236 243 248 255 259 263 266 271 277 278 276 279 282 284 286 288 290 292 293 294 295 296 297 298 299 300 305 309 308 303 298 300 297 294 291 289
197 201 207 202 203 207 213 218 221 221 226 232 234 237 243 249 254 260 265 270 274 279 283 282 281 283 284 286 288 291 292 293 294 294 295 296 298 300 305 307 306 305 303 301 300 296 294 292 288
191 192 203 194 196 203 210 220 223 221 226 232 235 237 241 246 253 259 266 270 273 281 283 286 286 286 286 288 290 291 292 292 293 294 295 299 303 305 305 305 304 304 301 299 297 296 294 289 284
177 185 197 191 191 196 206 218 220 219 228 232 237 241 246 249 256 261 264 272 277 279 284 287 288 288 288 289 289 290 290 291 292 295 300 302 303 303 302 302 302 302 301 299 298 297 292 285 280
177 175 186 181 187 195 201 214 220 219 228 233 239 246 253 260 259 260 264 269 275 281 284 286 286 287 287 288 289 289 290 292 296 299 301 301 301 300 301 301 300 301 299 298 297 296 291 284 278
173 172 167 176 183 191 197 206 216 219 228 236 242 248 255 259 263 267 270 274 278 280 282 283 285 287 288 288 288 289 292 296 299 301 300 300 299 299 299 300 299 298 297 296 295 293 288 284 279
170 158 170 174 181 187 195 204 214 218 226 232 243 249 253 258 267 274 278 279 280 281 283 285 287 286 285 287 292 296 299 300 300 299 298 298 298 297 297 297 296 295 295 294 293 289 285 283 280
160 167 171 170 173 181 190 197 207 216 225 231 235 244 256 267 272 275 279 280 282 285 284 283 286 292 296 298 298 297 297 297 297 296 296 295 295 295 295 295 295 294 293 292 290 287 284 282 279
171 167 169 165 171 175 177 187 199 211 229 244 252 262 268 273 277 277 277 279 280 281 285 289 293 294 294 294 294 294 295 294 294 294 294 294 294 293 293 293 293 292 292 291 289 287 284 282 280
160 159 162 159 165 170 175 186 198 214 232 250 262 268 269 269 271 274 274 276 283 289 293 295 295 296 297 297 296 295 294 293 293 293 293 294 294 293 293 293 292 292 292 291 289 288 286 285 284
158 152 152 154 158 164 172 188 204 224 241 251 254 258 265 268 270 278 287 291 290 292 295 296 296 296 296 296 295 294 293 293 293 293 292 291 292 292 293 292 292 291 291 290 288 287 285 284 283
Height
5871 5875 5877 5881 5886 5888 5889 5890 5892 5893 5895 5895 5896 5897 5897 5898 5899 5901 5899 5899 5899 5899 5899 5900 5899 5899 5898 5898 5897 5896 5895 5894 5892 5891 5889 5886 5883 5881 5879 5877 5874 5872 5869 5867 5865 5863 5861 5859 5857
5865 5868 5872 5875 5880 5885 5884 5887 5890 5893 5893 5892 5895 5895 5896 5896 5896 5897 5898 5898 5897 5899 5899 5899 5899 5899 5898 5897 5896 5895 5894 5892 5891 5889 5887 5885 5882 5880 5878 5875 5873 5870 5867 5864 5861 5858 5856 5854 5852
5857 5861 5865 5866 5872 5882 5880 5883 5888 5889 5890 5890 5893 5894 5894 5894 5894 5895 5896 5895 5896 5897 5898 5898 5898 5898 5897 5896 5896 5894 5893 5891 5890 5888 5886 5883 5881 5878 5876 5873 5870 5867 5863 5860 5857 5854 5851 5848 5846
5847 5853 5855 5857 5869 5879 5877 5877 5886 5885 5887 5888 5890 5892 5892 5893 5892 5893 5894 5893 5894 5895 5896 5896 5896 5896 5896 5895 5894 5893 5892 5890 5888 5886 5884 5882 5879 5876 5873 5870 5866 5863 5859 5856 5852 5849 5845 5842 5839
5839 5844 5846 5851 5864 5874 5872 5870 5880 5881 5883 5886 5888 5889 5890 5891 5890 5891 5893 5891 5892 5893 5894 5894 5894 5894 5894 5893 5892 5891 5890 5888 5887 5884 5882 5880 5877 5873 5870 5866 5863 5859 5855 5851 5847 5843 5839 5835 5832
5828 5831 5835 5842 5859 5870 5865 5865 5876 5877 5879 5883 5885 5886 5887 5889 5888 5889 5890 5890 5890 5892 5892 5892 5892 5892 5892 5891 5890 5889 5888 5886 5885 5882 5880 5877 5874 5871 5867 5863 5860 5855 5851 5847 5842 5837 5833 5829 5824
5817 5822 5828 5838 5853 5861 5862 5861 5872 5873 5875 5878 5882 5884 5884 5885 5886 5886 5888 5888 5888 5889 5890 5890 5890 5890 5889 5888 5887 5886 5885 5883 5882 5880 5878 5875 5872 5869 5864 5861 5856 5852 5848 5844 5838 5833 5828 5823 5818
5806 5812 5820 5829 5842 5855 5858 5857 5865 5865 5873 5874 5879 5881 5880 5882 5883 5883 5884 5886 5887 5887 5887 5888 5887 5887 5886 5886 5885 5884 5883 5881 5880 5877 5875 5872 5869 5866 5862 5858 5853 5849 5845 5841 5836 5830 5825 5820 5815
5794 5801 5810 5821 5833 5848 5851 5852 5857 5861 5867 5870 5875 5877 5875 5879 5879 5880 5881 5882 5884 5885 5885 5885 5885 5884 5884 5883 5883 5881 5880 5878 5876 5874 5872 5869 5866 5863 5859 5855 5851 5846 5843 5839 5834 5830 5825 5820 5816
5782 5792 5803 5817 5827 5841 5843 5846 5850 5857 5862 5864 5870 5874 5873 5875 5877 5878 5879 5879 5881 5881 5882 5882 5882 5882 5881 5881 5880 5879 5877 5875 5873 5870 5868 5865 5863 5859 5856 5852 5848 5845 5840 5837 5833 5829 5825 5820 5816
5773 5785 5797 5808 5819 5828 5832 5836 5842 5850 5854 5860 5864 5869 5869 5872 5873 5874 5875 5877 5877 5878 5878 5879 5879 5879 5879 5878 5877 5876 5874 5872 5869 5867 5864 5862 5859 5856 5853 5849 5845 5841 5837 5833 5830 5827 5824 5820 5816
5760 5776 5785 5796 5808 5815 5822 5828 5835 5844 5850 5855 5859 5864 5866 5868 5870 5871 5872 5873 5873 5874 5875 5875 5876 5876 5875 5875 5873 5872 5871 5869 5866 5863 5860 5858 5855 5852 5849 5845 5841 5837 5834 5830 5827 5824 5821 5818 5815
5749 5767 5776 5783 5798 5807 5812 5819 5831 5836 5844 5850 5855 5857 5861 5864 5866 5867 5868 5869 5870 5870 5871 5871 5872 5872 5871 5870 5869 5868 5866 5864 5861 5859 5856 5854 5851 5848 5845 5841 5837 5833 5829 5826 5823 5820 5817 5814 5811
5745 5755 5763 5775 5789 5798 5804 5811 5826 5830 5839 5846 5849 5850 5856 5859 5861 5863 5865 5865 5866 5866 5867 5867 5867 5867 5867 5866 5864 5863 5861 5859 5856 5854 5851 5848 5845 5842 5839 5836 5832 5828 5824 5821 5818 5814 5811 5809 5806
5728 5738 5753 5768 5778 5790 5797 5807 5819 5824 5832 5838 5843 5846 5851 5854 5856 5858 5860 5861 5861 5861 5862 5863 5863 5862 5861 5861 5859 5857 5856 5853 5851 5848 5845 5842 5839 5836 5832 5829 5826 5822 5818 5815 5811 5808 5805 5801 5799
5715 5725 5739 5758 5770 5781 5791 5803 5812 5820 5826 5832 5837 5842 5846 5849 5851 5852 5854 5856 5857 5857 5858 5858 5858 5857 5856 5855 5854 5853 5850 5847 5844 5842 5838 5835 5832 5828 5825 5822 5818 5814 5811 5807 5804 5800 5797 5794 5791
5704 5717 5734 5751 5763 5774 5785 5797 5805 5811 5818 5824 5831 5837 5841 5844 5846 5848 5848 5851 5852 5853 5854 5853 5853 5852 5851 5849 5848 5846 5844 5841 5838 5835 5831 5827 5824 5820 5817 5813 5809 5806 5802 5799 5795 5792 5788 5785 5782
5701 5716 5730 5745 5756 5767 5778 5789 5798 5805 5813 5819 5825 5831 5835 5839 5841 5843 5845 5845 5847 5848 5848 5848 5847 5846 5845 5844 5842 5840 5837 5834 5831 5827 5823 5820 5816 5812 5808 5804 5800 5796 5793 5789 5786 5782 5779 5775 5772
5703 5712 5725 5739 5750 5765 5776 5785 5793 5801 5809 5815 5822 5826 5830 5833 5836 5838 5840 5840 5841 5842 5843 5842 5840 5840 5838 5837 5835 5832 5829 5826 5823 5819 5815 5811 5807 5803 5799 5795 5791 5787 5784 5780 5776 5772 5768 5765 5762
5694 5706 5718 5730 5742 5757 5768 5778 5786 5795 5804 5810 5815 5820 5825 5828 5832 5833 5834 5836 5835 5836 5836 5835 5834 5833 5831 5829 5827 5824 5821 5818 5814 5810 5806 5801 5797 5793 5789 5785 5781 5778 5773 5770 5766 5761 5757 5754 5751
5688 5700 5709 5727 5740 5753 5763 5772 5779 5791 5799 5805 5812 5816 5820 5824 5826 5827 5828 5829 5829 5829 5829 5828 5827 5826 5823 5821 5818 5815 5812 5808 5804 5800 5796 5792 5787 5784 5780 5776 5772 5767 5763 5759 5755 5751 5747 5743 5741
5687 5700 5709 5722 5735 5748 5758 5769 5778 5789 5795 5800 5806 5811 5815 5819 5821 5824 5823 5823 5823 5823 5821 5821 5820 5818 5816 5812 5809 5806 5802 5798 5794 5790 5786 5782 5777 5773 5769 5765 5761 5757 5752 5748 5744 5740 5736 5733 5730
5692 5701 5712 5723 5733 5745 5757 5766 5777 5784 5789 5797 5802 5806 5808 5813 5818 5818 5817 5816 5815 5815 5815 5813 5811 5809 5806 5803 5799 5796 5792 5788 5784 5780 5775 5772 5768 5763 5758 5754 5750 5745 5741 5737 5733 5729 5725 5722 5719
5694 5703 5712 5722 5732 5743 5753 5763 5772 5781 5787 5792 5797 5802 5805 5808 5810 5811 5811 5810 5809 5807 5807 5805 5802 5799 5797 5793 5790 5786 5782 5778 5774 5770 5766 5761 5756 5752 5747 5742 5738 5734 5729 5725 5721 5717 5713 5711 5709
5696 5703 5709 5720 5728 5740 5751 5761 5769 5779 5784 5790 5795 5798 5800 5800 5801 5802 5803 5804 5803 5801 5798 5796 5793 5791 5787 5784 5780 5776 5771 5767 5763 5759 5754 5750 5745 5740 5736 5731 5726 5721 5717 5713 5709 5705 5702 5699 5697
5696 5701 5713 5718 5727 5740 5751 5760 5768 5776 5782 5787 5791 5793 5794 5795 5796 5796 5796 5795 5794 5792 5790 5788 5785 5781 5777 5773 5770 5766 5762 5757 5752 5747 5742 5737 5733 5728 5723 5718 5714 5709 5705 5701 5696 5693 5690 5687 5685
5700 5710 5716 5724 5734 5744 5752 5761 5768 5773 5778 5783 5786 5788 5790 5791 5791 5791 5790 5788 5786 5784 5781 5778 5775 5772 5768 5764 5759 5754 5749 5745 5740 5735 5729 5725 5720 5715 5710 5705 5701 5696 5692 5687 5683 5680 5677 5675 5672
5705 5713 5720 5726 5735 5744 5752 5759 5765 5770 5774 5778 5782 5784 5785 5785 5785 5783 5782 5780 5777 5774 5772 5769 5765 5761 5756 5752 5746 5741 5736 5732 5727 5721 5716 5711 5706 5701 5696 5691 5687 5682 5678 5674 5671 5667 5664 5661 5657
5708 5714 5721 5729 5737 5744 5750 5758 5763 5767 5772 5775 5776 5777 5778 5777 5777 5776 5774 5772 5769 5767 5764 5760 5755 5750 5745 5739 5734 5728 5723 5717 5712 5707 5702 5697 5692 5687 5682 5677 5672 5668 5664 5660 5657 5653 5650 5646 5642
5710 5716 5722 5730 5739 5745 5751 5757 5761 5765 5768 5770 5771 5771 5772 5771 5770 5768 5767 5764 5760 5757 5752 5747 5743 5738 5732 5727 5721 5715 5709 5703 5697 5692 5686 5680 5676 5671 5666 5661 5656 5652 5648 5644 5641 5638 5634 5629 5625